Weather in Nekhaevskaya

Russia / Volgograd Oblast     50°24′31″N   41°45′08″E
temp.,
°C
wind,
m/s
gust,
m/s
humid.,
%
clouds,
%
prec.,
mm/h
press.,
hPa
HPBL,
m
4 march, thu
thu400:00−3w511860 0.0 1018362
03:00−2wsw6128711 0.0 1018427
06:00−1wsw81391100 0.0 1016769
09:000wsw81386100 0.1 1015790
12:00+2wsw9147463 0.0 1013852
15:00+4wsw9146131 0.0 10111052
18:00+3wsw817690 0.0 1009692
21:00+2wsw919730 0.0 1007598
5 march, fri
fri500:00+2sw9198557 0.0 1006701
03:00+3wsw7159278 0.4 1006620
06:00+2wsw71397100 0.4 1006606
09:00+2w51097100 1.3 1007470
12:00+2w51087100 0.3 1009761
15:00+2wnw588196 0.3 1010780
18:000nnw3590100 0.1 1012394
21:00−1nne2386100 0.1 1014213
6 march, sat
sat600:00−1ene2385100 0.0 1014292
03:00−2ene3485100 0.1 1014363
06:00−3ene4594100 0.5 1013328
09:00−2ene4691100 1.3 1013509
12:00−2nne4591100 0.9 1013397
15:00−2nne4590100 1.9 1013449
18:00−4ne228967 0.1 101370
21:00−4ese128849 0.1 1015128
7 march, sun
sun700:00−4sse2294100 0.6 1016203
03:00−4nw0495100 2.3 1017268
06:00−5nw589399 0.6 1018504
09:00−5wnw588176 0.6 1020620
12:00−3wsw710700 0.0 1018990
15:00−2sw9137144 0.0 10151166
18:00−3sw91671100 0.0 10131097
21:00−2wsw101867100 0.0 10111202
8 march, mon
mon800:00−2wsw9177592 0.0 1009912
03:00−3wsw8167989 0.0 1008682
06:00−3sw8158499 0.0 1007667
09:00−2wsw10158799 0.2 1006930
12:000wsw10158599 0.1 10061159
15:00+1w9138899 0.4 10081099
18:00−3nw5106977 0.3 1010539
21:00−5nnw266387 0.3 1013326